Flag for U.S.A. Weather past 2 weeks in Victorville, California, U.S.A.

Now
100 °F

Sunny.


Feels Like: 96 °F
Forecast: 67 / 99 °F
Wind: No wind

Location: George Air Force Base / Victorvi

Current Time: Aug 27, 2015 at 5:32:50 PM

Latest Report: Aug 27, 2015 at 4:55 PM


Visibility: 10 mi

Pressure: 29.99 "Hg (27.38 "Hg at 830m altitude)

Humidity: 12%

Dew point: 39 °F

Location of VictorvilleLocation

Historic Weather in Victorville — Graph

°F

Victorville temperature yesterday

Maximum temperature yesterday: 99 °F (at 1:55 PM)
Minimum temperature yesterday: 75 °F (at 3:15 AM)
Average temperature yesterday: 86 °F

Past Weeks' High & Low Weather Summary

 TemperatureHumidityPressure
High106 °F (Aug 16, 3:15 PM)60% (Aug 21, 6:15 AM)30.14 "Hg (Aug 21, 6:15 AM)
Low63 °F (Aug 23, 6:35 AM)8% (Aug 20, 2:15 PM)29.83 "Hg (Aug 20, 3:55 PM)
Average84 °F24%29.99 "Hg
* Reported Aug 12 4:15 PM — Aug 27 4:15 PM, Victorville, Weather by CustomWeather, © 2015

Note: Actual official high and low records may vary slightly from our data, if they occured in-between our weather recording intervals... More about our weather records

Advertising

Victorville weather history for previous 24 hours

 ConditionsComfort  
Time TempWeatherWind HumidityBarometerVisibility
4:15 PM
Thu, Aug 27
100 °FSunny.No wind12%30.00 "Hg10 mi
3:55 PM100 °FSunny.6 mph12%30.01 "Hg10 mi
3:15 PM99 °FSunny.9 mph13%30.03 "Hg10 mi
2:55 PM100 °FSunny.6 mph12%30.04 "Hg10 mi
2:15 PM99 °FSunny.5 mph13%30.05 "Hg10 mi
1:55 PM99 °FSunny.No wind13%30.06 "Hg10 mi
1:35 PM97 °FSunny.No wind13%30.07 "Hg7 mi
1:15 PM99 °FSunny.No wind13%30.08 "Hg10 mi
12:55 PM97 °FSunny.No wind13%30.09 "Hg10 mi
12:15 PM95 °FSunny.No wind13%30.11 "Hg10 mi
11:55 AM93 °FSunny.No wind14%30.11 "Hg10 mi
11:35 AM93 °FSunny.No wind14%30.12 "Hg10 mi
10:35 AM90 °FSunny.No wind16%30.14 "Hg10 mi
10:15 AM88 °FSunny.No wind17%30.14 "Hg10 mi
9:55 AM86 °FSunny.No wind19%30.14 "Hg10 mi
9:35 AM84 °FSunny.No wind20%30.14 "Hg10 mi
9:15 AM82 °FSunny.No wind21%30.14 "Hg10 mi
8:55 AM82 °FSunny.No wind21%30.14 "Hg10 mi
8:35 AM82 °FSunny.No wind21%30.14 "Hg10 mi
8:15 AM81 °FSunny.No wind24%30.14 "Hg10 mi
7:55 AM79 °FSunny.No wind26%30.14 "Hg10 mi
7:15 AM73 °FClear.No wind33%30.13 "Hg10 mi
6:55 AM72 °FClear.No wind36%30.12 "Hg10 mi
6:35 AM72 °FClear.No wind38%30.11 "Hg10 mi
6:15 AM72 °FClear.No wind36%30.10 "Hg10 mi
5:55 AM72 °FClear.7 mph36%30.10 "Hg10 mi
5:15 AM70 °FClear.7 mph46%30.10 "Hg10 mi
4:55 AM70 °FClear.No wind46%30.09 "Hg10 mi
4:35 AM70 °FClear.No wind46%30.09 "Hg10 mi
4:15 AM72 °FClear.No wind44%30.09 "Hg10 mi
3:55 AM73 °FClear.No wind38%30.09 "Hg10 mi
3:35 AM73 °FClear.No wind36%30.09 "Hg10 mi
3:15 AM72 °FClear.No wind41%30.08 "Hg10 mi
2:55 AM73 °FClear.No wind38%30.08 "Hg10 mi
2:35 AM73 °FClear.No wind38%30.09 "Hg10 mi
2:15 AM73 °FClear.No wind38%30.09 "Hg10 mi
1:55 AM73 °FClear.No wind38%30.09 "Hg10 mi
1:35 AM75 °FClear.No wind36%30.09 "Hg10 mi
1:15 AM75 °FClear.No wind36%30.09 "Hg10 mi
12:55 AM73 °FClear.No wind41%30.09 "Hg10 mi
12:15 AM75 °FClear.No wind36%30.09 "Hg10 mi
11:55 PM
Wed, Aug 26
79 °FClear.No wind30%30.09 "Hg10 mi
11:15 PM81 °FClear.No wind28%30.09 "Hg10 mi
10:55 PM82 °FClear.8 mph26%30.09 "Hg10 mi
10:35 PM82 °FClear.7 mph26%30.09 "Hg10 mi
10:15 PM81 °FClear.5 mph28%30.09 "Hg10 mi
9:55 PM82 °FClear.3 mph26%30.08 "Hg10 mi
9:35 PM82 °FClear.6 mph26%30.08 "Hg10 mi
8:55 PM86 °FClear.7 mph24%30.06 "Hg10 mi
8:15 PM88 °FSunny.9 mph24%30.05 "Hg10 mi
7:55 PM90 °FSunny.8 mph22%30.04 "Hg10 mi
7:15 PM91 °FSunny.12 mph20%30.02 "Hg10 mi
6:55 PM93 °FSunny.15 mph17%30.01 "Hg10 mi
6:35 PM95 °FSunny.18 mph15%30.01 "Hg10 mi
6:15 PM97 °FSunny.12 mph13%30.00 "Hg10 mi
5:55 PM97 °FSunny.No wind14%30.00 "Hg10 mi
5:35 PM97 °FSunny.No wind14%30.00 "Hg10 mi
5:15 PM97 °FSunny.14 mph14%30.00 "Hg10 mi
Weather by CustomWeather, © 2015

See weather overviewHow to use our weather pages